[[{"header":{"parameterUnit":"m.s-1","parameterCategory":1,"la1":30.2991,"la2":30.254,"lo1":-89.0895,"lo2":-89.0444,"dy":0.0017,"dx":0.0017,"nx":28,"ny":28,"refTime":"2025-01-04T03:00:00:Z","depth":0,"parameterNumber":2,"parameterNumberName":"U-component_of_WINDS"},"data":[0,0,0,0,0,0,0,0,0,0,0,0,0,0,0,0,0,0,0,0,0,0,0,0,0,0,0,0,0,0,0,0,0,0,0,0,0,0,0,0,0,0,0,0,0,0,0,0,0,0,0,0,0,0,0,0,0,0,-0.4801,-0.4802,0,-0.4902,-0.4903,-0.4905,-0.4962,-0.4962,-0.4962,-0.4963,-0.5067,-0.5069,-0.5072,0,0,0,0,0,0,0,0,0,0,0,0,0,-0.4658,-0.466,-0.4801,-0.4802,-0.4804,-0.4902,-0.4903,-0.4905,-0.4962,-0.4962,-0.4962,-0.4963,-0.5066,-0.5069,-0.5072,0,0,0,0,0,0,0,0,0,0,0,0,0,-0.4736,-0.4661,-0.4801,-0.4844,-0.4849,-0.4902,-0.4904,-0.4905,-0.4962,-0.4962,-0.4962,-0.4963,-0.5065,-0.5069,-0.5072,-0.5091,0,0,-0.5084,-0.5086,0,0,0,0,0,0,0,0,-0.4731,-0.4741,-0.4836,-0.4841,-0.4847,-0.492,-0.4891,-0.4967,-0.4962,-0.4919,-0.4963,-0.4963,-0.5018,-0.5025,-0.5044,-0.5095,-0.51,-0.5085,-0.5087,-0.5089,-0.509,0,0,0,0,0,0,0,-0.4726,-0.4737,-0.4841,-0.4838,-0.4844,-0.4858,-0.487,-0.4906,-0.4965,-0.4923,-0.4927,-0.4938,-0.5021,-0.504,-0.5047,-0.5101,-0.5085,-0.5088,-0.509,-0.5092,-0.5174,-0.5173,0,0,0,0,0,0,-0.4713,-0.4732,-0.4838,-0.4844,-0.4788,-0.4861,-0.4874,-0.4896,-0.4965,-0.4976,-0.4938,-0.4941,-0.5033,-0.5042,-0.5051,-0.5077,-0.5089,-0.5092,-0.5095,-0.5174,-0.5174,-0.5173,0,0,0,0,0,0,-0.471,-0.4722,-0.4834,-0.4789,-0.4805,-0.4863,-0.4888,-0.4898,-0.4917,-0.4977,-0.4988,-0.4947,-0.5034,-0.5045,-0.508,-0.5081,-0.5094,-0.5098,-0.5174,-0.5174,-0.5174,-0.5128,0,0,0,0,0,0,-0.4706,-0.4721,-0.4728,-0.4789,-0.4807,-0.4861,-0.4888,-0.49,-0.4924,-0.4928,-0.4988,-0.4998,-0.5035,-0.5074,-0.5084,-0.5087,-0.5101,-0.5174,-0.5174,-0.5174,-0.513,-0.5126,-0.5123,0,0,0,0,0,-0.4701,-0.4711,-0.4728,-0.4741,-0.4817,-0.4861,-0.4871,-0.4913,-0.4924,-0.4931,-0.497,-0.4996,-0.5079,-0.5077,-0.5089,-0.5092,-0.5174,-0.5174,-0.5174,-0.5131,-0.5127,-0.5124,0,0,0,0,0,0,-0.4649,-0.472,-0.474,-0.477,-0.4809,-0.4871,-0.4882,-0.4908,-0.4945,-0.4947,-0.4998,-0.5011,-0.5041,-0.5071,-0.5067,-0.5114,-0.513,-0.5132,-0.5094,-0.509,-0.5087,-0.5079,-0.5104,0,0,0,0,0,-0.4641,-0.4671,-0.4732,-0.4753,-0.4771,-0.4823,-0.4844,-0.4873,-0.4916,-0.4932,-0.4973,-0.5014,-0.5049,-0.5071,-0.5107,-0.5135,-0.5149,-0.5143,-0.514,-0.5137,-0.5138,-0.5155,-0.5153,-0.5172,-0.5172,-0.5172,0,0,-0.4625,-0.4668,-0.4684,-0.4744,-0.4777,-0.4807,-0.4837,-0.4867,-0.489,-0.4937,-0.4973,-0.5004,-0.5053,-0.5084,-0.51,-0.511,-0.5136,-0.5136,-0.5133,-0.5136,-0.5154,-0.5152,-0.5151,-0.5172,-0.5172,-0.5172,0,0,-0.4612,-0.4647,-0.4669,-0.4702,-0.4752,-0.4787,-0.4792,-0.485,-0.4872,-0.4909,-0.4945,-0.4973,-0.5033,-0.5066,-0.5091,-0.509,-0.5116,-0.51,-0.5083,-0.51,-0.5098,-0.5097,-0.5097,-0.5096,-0.5101,-0.5101,-0.5101,0,-0.4586,-0.4632,-0.4676,-0.4705,-0.473,-0.4774,-0.4797,-0.4827,-0.4887,-0.4903,-0.4913,-0.4989,-0.5025,-0.5065,-0.5065,-0.5083,-0.5091,-0.5094,-0.5095,-0.5094,-0.5094,-0.5094,-0.5094,-0.5099,-0.5099,-0.5099,-0.51,0,-0.4597,-0.4629,-0.4641,-0.4697,-0.4724,-0.4749,-0.4798,-0.482,-0.4846,-0.488,-0.4917,-0.4961,-0.5007,-0.5019,-0.5045,-0.5063,-0.5067,-0.5085,-0.5102,-0.5089,-0.509,-0.5091,-0.5096,-0.5097,-0.5097,-0.5098,0,0,-0.4554,-0.4635,-0.4638,-0.4664,-0.4724,-0.4749,-0.4776,-0.4821,-0.4839,-0.4879,-0.4903,-0.4953,-0.497,-0.4998,-0.5029,-0.5043,-0.5039,-0.5059,-0.5061,-0.5054,-0.5062,-0.5047,-0.5047,-0.5057,-0.5057,-0.5057,-0.5058,0,-0.4549,-0.46,-0.4641,-0.4677,-0.4707,-0.4749,-0.4773,-0.4812,-0.4844,-0.4875,-0.4911,-0.4945,-0.4965,-0.4982,-0.4998,-0.5036,-0.5042,-0.5037,-0.5081,-0.5082,-0.5067,-0.5048,-0.5033,-0.5031,-0.5058,-0.5059,-0.5059,0,-0.455,-0.4587,-0.4626,-0.4683,-0.4697,-0.4717,-0.4762,-0.479,-0.4836,-0.4858,-0.4889,-0.4921,-0.4953,-0.4966,-0.501,-0.5006,-0.5027,-0.5048,-0.5049,-0.5055,-0.5069,-0.5053,-0.5031,-0.5031,-0.506,-0.506,-0.506,0,-0.4514,-0.4575,-0.4606,-0.4627,-0.4693,-0.4707,-0.4735,-0.4781,-0.4805,-0.4844,-0.4861,-0.4903,-0.4926,-0.4958,-0.5,-0.5006,-0.504,-0.5057,-0.506,-0.5058,-0.5065,-0.5063,-0.5046,-0.5078,-0.5078,-0.5078,-0.5078,0,-0.4504,-0.4525,-0.4591,-0.461,-0.4636,-0.4683,-0.4708,-0.474,-0.478,-0.4806,-0.4846,-0.487,-0.4925,-0.4955,-0.4989,-0.5021,-0.5031,-0.505,-0.5059,-0.5046,-0.5044,-0.506,-0.5061,-0.5078,-0.5078,-0.5078,-0.5078,0,-0.4468,-0.4512,-0.4549,-0.4609,-0.4625,-0.4641,-0.4693,-0.4713,-0.4748,-0.478,-0.4791,-0.4845,-0.4883,-0.4929,-0.4982,-0.5005,-0.5033,-0.5046,-0.5018,-0.5023,-0.5022,-0.5022,-0.5014,-0.5016,-0.5046,-0.5046,-0.5046,0,-0.4458,-0.4476,-0.4538,-0.4558,-0.4586,-0.4618,-0.4643,-0.469,-0.4715,-0.4768,-0.4782,-0.4823,-0.4859,-0.4918,-0.4962,-0.5003,-0.5017,-0.5012,-0.5024,-0.5011,-0.5017,-0.5016,-0.5018,-0.5009,-0.5008,-0.5008,-0.5007,0,-0.4437,-0.4458,-0.4492,-0.4534,-0.4563,-0.4598,-0.4635,-0.465,-0.4705,-0.4731,-0.477,-0.4798,-0.4852,-0.4892,-0.4939,-0.4969,-0.4997,-0.5003,-0.5006,-0.4994,-0.4976,-0.4986,-0.5009,-0.5003,-0.5004,-0.5004,-0.5004,-0.5004,-0.4414,-0.4432,-0.4478,-0.4515,-0.4548,-0.4582,-0.4604,-0.4641,-0.4675,-0.4723,-0.4749,-0.4788,-0.4833,-0.4899,-0.4928,-0.4959,-0.4969,-0.4973,-0.4974,-0.4974,-0.497,-0.4971,-0.4968,-0.4968,-0.4968,-0.4968,-0.4968,0,-0.4394,-0.4426,-0.446,-0.4511,-0.454,-0.4564,-0.4607,-0.4629,-0.4663,-0.4703,-0.4737,-0.4783,-0.4822,-0.487,-0.4912,-0.4928,-0.4943,-0.4938,-0.4937,-0.4944,-0.4959,-0.4952,-0.4926,-0.4926,-0.4926,-0.4926,-0.4926,-0.4926,-0.4387,-0.4419,-0.4446,-0.4494,-0.4527,-0.4565,-0.4587,-0.4619,-0.4651,-0.47,-0.4733,-0.4763,-0.4807,-0.4853,-0.4891,-0.4904,-0.4917,-0.4909,-0.4926,-0.4939,-0.4943,-0.4946,-0.494,-0.4912,-0.4912,-0.4908,-0.4908,-0.4908]},{"header":{"parameterUnit":"m.s-1","parameterCategory":1,"la1":30.2991,"la2":30.254,"lo1":-89.0895,"lo2":-89.0444,"dy":0.0017,"dx":0.0017,"nx":28,"ny":28,"refTime":"2025-01-04T03:00:00:Z","depth":0,"parameterNumber":3,"parameterNumberName":"V-component_of_WINDS"},"data":[0,0,0,0,0,0,0,0,0,0,0,0,0,0,0,0,0,0,0,0,0,0,0,0,0,0,0,0,0,0,0,0,0,0,0,0,0,0,0,0,0,0,0,0,0,0,0,0,0,0,0,0,0,0,0,0,0,0,6.0457,6.0458,0,6.0569,6.057,6.0571,6.0572,6.057,6.0569,6.0567,6.0678,6.0682,6.0686,0,0,0,0,0,0,0,0,0,0,0,0,0,6.0241,6.0245,6.0457,6.0458,6.046,6.0569,6.057,6.0572,6.0572,6.057,6.0568,6.0567,6.0676,6.0681,6.0687,0,0,0,0,0,0,0,0,0,0,0,0,0,6.0342,6.0246,6.0457,6.0473,6.0476,6.0568,6.057,6.0572,6.0572,6.057,6.0568,6.0566,6.0675,6.0681,6.0687,6.077,0,0,6.0707,6.071,0,0,0,0,0,0,0,0,6.0336,6.035,6.0469,6.0472,6.0475,6.0554,6.0535,6.0638,6.0573,6.0535,6.0567,6.0565,6.0638,6.0647,6.0673,6.0775,6.078,6.0707,6.0711,6.0714,6.0716,0,0,0,0,0,0,0,6.0329,6.0345,6.0501,6.0471,6.0475,6.0474,6.0486,6.0554,6.0597,6.0538,6.0539,6.0552,6.0639,6.0667,6.0676,6.0782,6.0707,6.0713,6.0717,6.0719,6.096,6.0963,0,0,0,0,0,0,6.0319,6.0339,6.0498,6.0504,6.0399,6.048,6.0493,6.0531,6.0597,6.0605,6.0554,6.0552,6.0657,6.0668,6.0679,6.0783,6.0714,6.072,6.0724,6.0958,6.0961,6.0964,0,0,0,0,0,0,6.0315,6.0333,6.0493,6.0422,6.0442,6.0486,6.0528,6.0534,6.0562,6.0608,6.0616,6.0574,6.0656,6.067,6.0749,6.0787,6.0723,6.0729,6.0955,6.0959,6.0962,6.099,0,0,0,0,0,0,6.0308,6.0332,6.0364,6.0423,6.0446,6.0561,6.0531,6.0538,6.0573,6.0572,6.063,6.0637,6.0655,6.0739,6.0755,6.0795,6.0734,6.0952,6.0957,6.0961,6.0986,6.0994,6.1002,0,0,0,0,0,6.0301,6.0366,6.0366,6.0385,6.0488,6.0563,6.0576,6.0597,6.0576,6.0609,6.064,6.0635,6.078,6.0747,6.0765,6.0807,6.0949,6.0955,6.0961,6.0982,6.0993,6.1001,0,0,0,0,0,0,6.0308,6.0374,6.0374,6.046,6.0507,6.0563,6.0605,6.0607,6.0659,6.0655,6.0677,6.069,6.0769,6.0795,6.0757,6.0892,6.0862,6.0872,6.0872,6.0883,6.089,6.0883,6.0739,0,0,0,0,0,6.032,6.0377,6.0431,6.0502,6.0525,6.0561,6.0595,6.0607,6.0655,6.0674,6.071,6.0756,6.0812,6.0848,6.0902,6.0989,6.1003,6.1027,6.1035,6.1041,6.105,6.1101,6.1113,6.0983,6.0982,6.0982,0,0,6.0345,6.0388,6.0422,6.0504,6.0542,6.06,6.0577,6.0639,6.0683,6.0683,6.076,6.0788,6.0841,6.0925,6.0963,6.0949,6.1089,6.1049,6.1053,6.1059,6.1108,6.112,6.1131,6.0986,6.0986,6.0985,0,0,6.0421,6.0458,6.0523,6.0561,6.0619,6.0643,6.0658,6.0716,6.0735,6.0813,6.0815,6.0867,6.0962,6.1001,6.1033,6.1126,6.1124,6.1142,6.1184,6.1233,6.1244,6.1253,6.1289,6.1301,6.115,6.115,6.115,0,6.0444,6.0533,6.0555,6.0619,6.0656,6.0661,6.0727,6.0762,6.0834,6.0859,6.0842,6.0965,6.1,6.1095,6.1118,6.1142,6.1162,6.1136,6.124,6.125,6.1259,6.1293,6.1306,6.1152,6.1152,6.1152,6.1152,0,6.056,6.0622,6.0668,6.074,6.0781,6.0845,6.0877,6.0916,6.0925,6.0951,6.1032,6.1075,6.1139,6.1162,6.117,6.1258,6.1248,6.1236,6.1206,6.1273,6.1306,6.1319,6.1155,6.1154,6.1154,6.1153,0,0,6.0644,6.0729,6.0746,6.078,6.0844,6.0892,6.0957,6.1022,6.1057,6.1105,6.1161,6.1243,6.1233,6.127,6.1282,6.1325,6.14,6.1308,6.1309,6.1326,6.1503,6.1514,6.1528,6.1399,6.1401,6.1403,6.1499,0,6.0728,6.0846,6.0869,6.0971,6.103,6.1036,6.1092,6.1138,6.1164,6.1217,6.1245,6.1304,6.1285,6.1308,6.135,6.1382,6.1436,6.1375,6.1452,6.1454,6.1441,6.1545,6.1556,6.1645,6.1512,6.1514,6.1516,0,6.0843,6.0898,6.1007,6.1067,6.1092,6.1143,6.1206,6.1256,6.1309,6.1325,6.1367,6.1375,6.1443,6.1409,6.1504,6.1462,6.1495,6.1515,6.1519,6.1529,6.149,6.156,6.1673,6.1688,6.1535,6.1534,6.1532,0,6.0896,6.0998,6.1077,6.1105,6.1176,6.1212,6.1243,6.1293,6.1332,6.1386,6.1412,6.1472,6.1505,6.1552,6.1577,6.1549,6.1671,6.1638,6.1687,6.1687,6.1713,6.1712,6.1836,6.1731,6.173,6.173,6.173,0,6.099,6.1057,6.1102,6.1151,6.1227,6.1252,6.1326,6.1356,6.1401,6.1456,6.1463,6.1514,6.1543,6.1598,6.1617,6.1694,6.1708,6.1724,6.1729,6.1725,6.1723,6.1748,6.1743,6.1734,6.1733,6.1732,6.1732,0,6.1063,6.1096,6.1183,6.1244,6.1261,6.1314,6.1366,6.1414,6.144,6.151,6.1527,6.1569,6.1634,6.1664,6.1743,6.1757,6.1846,6.1844,6.1829,6.1831,6.1879,6.1875,6.2026,6.2048,6.1925,6.1926,6.1927,0,6.1122,6.1174,6.1242,6.128,6.1313,6.1374,6.1414,6.1441,6.1482,6.1547,6.1588,6.1654,6.1709,6.1813,6.185,6.1912,6.1914,6.1963,6.1923,6.1919,6.1918,6.1916,6.1922,6.197,6.1971,6.1972,6.1973,0,6.1223,6.1238,6.1296,6.1362,6.141,6.1462,6.1513,6.1544,6.1578,6.1624,6.1693,6.1736,6.1819,6.1886,6.1951,6.1982,6.1984,6.1985,6.2,6.1998,6.1988,6.1997,6.1851,6.1982,6.1981,6.198,6.198,6.198,6.1293,6.1341,6.1397,6.1463,6.1505,6.1553,6.1602,6.1636,6.1694,6.1766,6.1777,6.1851,6.1903,6.1991,6.2025,6.2083,6.2071,6.2092,6.2098,6.2103,6.2108,6.1977,6.2094,6.2094,6.2094,6.2094,6.2093,0,6.1398,6.1435,6.1495,6.1568,6.162,6.1619,6.1675,6.1719,6.1784,6.1834,6.1889,6.1969,6.2034,6.2076,6.2142,6.2181,6.2184,6.2197,6.2196,6.2204,6.2113,6.2095,6.2194,6.2194,6.2194,6.2194,6.2194,6.2194,6.1458,6.1541,6.1562,6.1665,6.1701,6.1776,6.1809,6.1853,6.1894,6.1983,6.2038,6.2066,6.2114,6.2184,6.2244,6.2254,6.2279,6.2294,6.2305,6.222,6.2209,6.22,6.2183,6.2299,6.2299,6.2391,6.2392,6.2392]}]]